Location: Newark
(48.6461°N, 4.3644°W)
Time: 04:58:48
(UTC+00:00)

STARLINK 1064 - Pass Details

Date: 12 December 2019
Orbit: 549 x 550 km, 53.0° (Epoch: 25 January)

Event Time Altitude Azimuth Distance (km) Brightness Sun altitude
Exits shadow 04:42:09 20° 129° (SE) 1,345 6.0 -31.6°
Drops below altitude 10° 04:43:29 10° 126° (SE) 1,862 6.9 -31.3°
Enters shadow 05:43:36 -62° 316° (NW) 11,895 10.4 -21.5°
